Tracking 31027 objects as of 19-Jul-2025
HD Live streaming from Space Station
objects crossing your sky now

COSMOS 970 DEB

Track COSMOS 970 DEB now!
10-day predictions


NORAD ID: 14907
Int'l Code: 1977-121BL
Perigee: 1,002.8 km
Apogee: 1,119.7 km
Inclination: 66.0 °
Period: 106.3 minutes
Semi major axis: 7432 km
RCS: 0.0067 m2 (small)
Launch date: December 21, 1977
Source: Commonwealth of Independent States (former USSR) (CIS)
Launch site: TYURATAM MISSILE AND SPACE COMPLEX (TTMTR)

Note: This is SATELLITE DEBRIS
Your satellite tracking list
IRIDIUM 106
Track 1 satellite(s)




NASA's NSSDC Master Catalog

Two Line Element Set (TLE):
1 14907U 77121BL  25199.02861557  .00000159  00000-0  33411-3 0  9999
2 14907  66.0278  59.8552 0078606 250.9318 259.5190 13.54950853156085
Source of the keplerian elements: AFSPC